[[{"header":{"parameterUnit":"m.s-1","parameterCategory":1,"la1":30.2991,"la2":30.254,"lo1":-89.0895,"lo2":-89.0444,"dy":0.0017,"dx":0.0017,"nx":28,"ny":28,"refTime":"2024-02-29T03:00:00:Z","depth":0,"parameterNumber":2,"parameterNumberName":"U-component_of_WINDS"},"data":[0,0,0,0,0,0,0,0,0,0,0,0,0,0,0,0,0,0,0,0,0,0,0,0,0,0,0,0,0,0,0,0,0,0,0,0,0,0,0,0,0,0,0,0,0,0,0,0,0,0,0,0,0,0,0,0,0,0,-4.4818,-4.4818,0,-4.4827,-4.4827,-4.4827,-4.4694,-4.469,-4.4686,-4.4683,-4.4694,-4.4697,-4.4701,0,0,0,0,0,0,0,0,0,0,0,0,0,-4.4687,-4.469,-4.4818,-4.4818,-4.4818,-4.4827,-4.4827,-4.4827,-4.4694,-4.469,-4.4685,-4.4681,-4.4693,-4.4697,-4.4701,0,0,0,0,0,0,0,0,0,0,0,0,0,-4.4725,-4.4691,-4.4818,-4.4753,-4.4747,-4.4827,-4.4827,-4.4827,-4.4695,-4.469,-4.4684,-4.4679,-4.4691,-4.4696,-4.4702,-4.4845,0,0,-4.4719,-4.4721,0,0,0,0,0,0,0,0,-4.4723,-4.473,-4.4762,-4.4757,-4.4751,-4.4753,-4.4785,-4.4833,-4.4696,-4.4715,-4.4683,-4.4676,-4.4718,-4.4721,-4.4735,-4.4846,-4.4846,-4.4719,-4.4723,-4.4725,-4.4727,0,0,0,0,0,0,0,-4.472,-4.4729,-4.4821,-4.4763,-4.4756,-4.4724,-4.4723,-4.4793,-4.4747,-4.4713,-4.4703,-4.4706,-4.4714,-4.473,-4.4734,-4.4846,-4.4719,-4.4724,-4.4727,-4.473,-4.5075,-4.5081,0,0,0,0,0,0,-4.4726,-4.4727,-4.4821,-4.4822,-4.4723,-4.473,-4.473,-4.4758,-4.4746,-4.4739,-4.4711,-4.47,-4.4723,-4.4728,-4.4734,-4.4901,-4.4725,-4.473,-4.4733,-4.507,-4.5077,-4.5083,0,0,0,0,0,0,-4.4724,-4.4736,-4.4821,-4.4772,-4.478,-4.4738,-4.4772,-4.4761,-4.4777,-4.4744,-4.4735,-4.4735,-4.4719,-4.4726,-4.4818,-4.49,-4.4733,-4.4738,-4.5063,-4.5072,-4.508,-4.5238,0,0,0,0,0,0,-4.4721,-4.4736,-4.479,-4.4774,-4.4783,-4.4905,-4.4777,-4.4765,-4.4787,-4.4772,-4.4765,-4.4758,-4.4715,-4.4811,-4.4824,-4.4905,-4.4742,-4.5055,-4.5067,-4.5077,-4.5225,-4.5251,-4.5273,0,0,0,0,0,-4.4717,-4.4834,-4.4793,-4.4805,-4.485,-4.491,-4.4916,-4.4863,-4.4794,-4.4848,-4.4827,-4.4759,-4.4889,-4.4822,-4.4835,-4.4919,-4.505,-4.5063,-4.5076,-4.5214,-4.5246,-4.5272,0,0,0,0,0,0,-4.4861,-4.4831,-4.4785,-4.4901,-4.4909,-4.4888,-4.4954,-4.4898,-4.4926,-4.4912,-4.4846,-4.4845,-4.4949,-4.4942,-4.4868,-4.5057,-4.4957,-4.4974,-4.5057,-4.5087,-4.511,-4.5111,-4.4747,0,0,0,0,0,-4.4906,-4.4958,-4.4928,-4.5033,-4.504,-4.4997,-4.5021,-4.498,-4.4986,-4.4989,-4.4974,-4.4984,-4.5026,-4.5056,-4.5093,-4.5223,-4.522,-4.5287,-4.5311,-4.5331,-4.5346,-4.5415,-4.5445,-4.5126,-4.5126,-4.5126,0,0,-4.5,-4.499,-4.5027,-4.5062,-4.5064,-4.5119,-4.5001,-4.5064,-4.5105,-4.4998,-4.5085,-4.5075,-4.508,-4.5193,-4.5241,-4.519,-4.5433,-4.5347,-4.5363,-4.5368,-4.5432,-4.5462,-4.5489,-4.5135,-4.5134,-4.5132,0,0,-4.5201,-4.5198,-4.5285,-4.5289,-4.5292,-4.5263,-4.5284,-4.5271,-4.526,-4.5346,-4.5267,-4.5315,-4.539,-4.5397,-4.5411,-4.5614,-4.5553,-4.5628,-4.5753,-4.5821,-4.5846,-4.5868,-4.5942,-4.5969,-4.5643,-4.5643,-4.5644,0,-4.5318,-4.5397,-4.5337,-4.5406,-4.5424,-4.533,-4.5419,-4.5425,-4.5442,-4.5457,-4.5399,-4.5491,-4.5488,-4.5601,-4.5651,-4.5665,-4.5687,-4.5629,-4.5847,-4.5869,-4.5889,-4.5958,-4.5986,-4.5653,-4.5651,-4.5651,-4.565,0,-4.5541,-4.5598,-4.5668,-4.5686,-4.5712,-4.579,-4.5743,-4.5776,-4.5732,-4.5709,-4.5798,-4.5791,-4.5826,-4.5849,-4.5807,-4.5956,-4.5925,-4.5859,-4.5758,-4.5929,-4.5994,-4.602,-4.5666,-4.5662,-4.566,-4.5657,0,0,-4.5834,-4.5817,-4.5844,-4.5851,-4.5848,-4.5891,-4.5965,-4.5998,-4.6029,-4.6043,-4.6105,-4.617,-4.6109,-4.6124,-4.6082,-4.6142,-4.6305,-4.6068,-4.6067,-4.6114,-4.647,-4.6521,-4.6553,-4.6263,-4.6268,-4.6272,-4.647,0,-4.603,-4.6156,-4.6104,-4.6235,-4.6287,-4.6197,-4.6262,-4.6268,-4.6248,-4.6289,-4.6267,-4.6315,-4.623,-4.6239,-4.6294,-4.6273,-4.6375,-4.6258,-4.6321,-4.6324,-4.6324,-4.6586,-4.664,-4.6828,-4.6495,-4.6499,-4.6502,0,-4.6275,-4.6299,-4.6436,-4.6423,-4.6443,-4.6502,-4.6529,-4.6569,-4.6574,-4.6555,-4.6573,-4.6518,-4.659,-4.6488,-4.6588,-4.651,-4.6532,-4.6526,-4.6532,-4.6537,-4.6425,-4.66,-4.6886,-4.6915,-4.6541,-4.6537,-4.6535,0,-4.6477,-4.6543,-4.6633,-4.6642,-4.663,-4.6674,-4.6671,-4.6669,-4.6693,-4.6716,-4.6731,-4.6763,-4.6781,-4.6807,-4.6762,-4.6692,-4.6869,-4.6763,-4.6857,-4.6858,-4.6899,-4.6898,-4.7195,-4.6912,-4.6911,-4.6911,-4.691,0,-4.6702,-4.679,-4.6724,-4.678,-4.6875,-4.6814,-4.691,-4.6897,-4.6897,-4.6949,-4.6873,-4.6924,-4.6861,-4.6906,-4.6871,-4.6959,-4.6968,-4.6955,-4.6946,-4.6963,-4.6965,-4.6978,-4.6965,-4.6918,-4.6916,-4.6915,-4.6914,0,-4.6945,-4.6904,-4.6997,-4.6977,-4.6974,-4.7046,-4.7029,-4.708,-4.7054,-4.7121,-4.7133,-4.7094,-4.7143,-4.71,-4.7147,-4.7123,-4.7242,-4.7212,-4.7241,-4.7233,-4.733,-4.7322,-4.7647,-4.7687,-4.7377,-4.738,-4.7383,0,-4.7092,-4.7157,-4.7144,-4.7173,-4.7175,-4.7223,-4.7246,-4.7189,-4.7217,-4.7227,-4.7277,-4.7319,-4.735,-4.7432,-4.7408,-4.7444,-4.7416,-4.7527,-4.7421,-4.7437,-4.7419,-4.7417,-4.7423,-4.7549,-4.7553,-4.7556,-4.7558,0,-4.7358,-4.7335,-4.7371,-4.7401,-4.7431,-4.7452,-4.7467,-4.7496,-4.7437,-4.7472,-4.752,-4.7544,-4.7592,-4.7635,-4.7663,-4.766,-4.7601,-4.7592,-4.7616,-4.7635,-4.765,-4.7645,-4.7301,-4.7585,-4.7582,-4.758,-4.7579,-4.7578,-4.7558,-4.7612,-4.7612,-4.7655,-4.766,-4.7676,-4.7723,-4.7703,-4.7742,-4.7777,-4.774,-4.78,-4.7803,-4.7834,-4.7838,-4.7885,-4.7838,-4.7872,-4.7881,-4.7891,-4.7906,-4.7641,-4.7889,-4.7888,-4.7888,-4.7887,-4.7886,0,-4.7822,-4.7817,-4.7857,-4.788,-4.7915,-4.7854,-4.7867,-4.7901,-4.7954,-4.7961,-4.7993,-4.8049,-4.8091,-4.807,-4.8106,-4.8147,-4.8121,-4.8159,-4.8156,-4.8157,-4.7945,-4.7921,-4.818,-4.818,-4.818,-4.818,-4.818,-4.818,-4.7963,-4.8051,-4.8028,-4.8118,-4.8112,-4.8169,-4.8183,-4.8197,-4.8202,-4.8269,-4.8303,-4.8288,-4.8285,-4.832,-4.8356,-4.8348,-4.8366,-4.8415,-4.8398,-4.8201,-4.8172,-4.8144,-4.8122,-4.8419,-4.8419,-4.8606,-4.8608,-4.861]},{"header":{"parameterUnit":"m.s-1","parameterCategory":1,"la1":30.2991,"la2":30.254,"lo1":-89.0895,"lo2":-89.0444,"dy":0.0017,"dx":0.0017,"nx":28,"ny":28,"refTime":"2024-02-29T03:00:00:Z","depth":0,"parameterNumber":3,"parameterNumberName":"V-component_of_WINDS"},"data":[0,0,0,0,0,0,0,0,0,0,0,0,0,0,0,0,0,0,0,0,0,0,0,0,0,0,0,0,0,0,0,0,0,0,0,0,0,0,0,0,0,0,0,0,0,0,0,0,0,0,0,0,0,0,0,0,0,0,-2.5005,-2.5005,0,-2.4985,-2.4984,-2.4984,-2.4951,-2.495,-2.4949,-2.4949,-2.4926,-2.4926,-2.4926,0,0,0,0,0,0,0,0,0,0,0,0,0,-2.5012,-2.5012,-2.5005,-2.5005,-2.5005,-2.4985,-2.4984,-2.4984,-2.4951,-2.495,-2.4949,-2.4949,-2.4926,-2.4926,-2.4926,0,0,0,0,0,0,0,0,0,0,0,0,0,-2.5002,-2.5012,-2.5005,-2.4986,-2.4984,-2.4985,-2.4984,-2.4984,-2.4951,-2.495,-2.4949,-2.4948,-2.4926,-2.4926,-2.4926,-2.4944,0,0,-2.4926,-2.4926,0,0,0,0,0,0,0,0,-2.5003,-2.5002,-2.4989,-2.4987,-2.4985,-2.4969,-2.4979,-2.4971,-2.4951,-2.4963,-2.4949,-2.4948,-2.4941,-2.494,-2.4938,-2.4943,-2.4942,-2.4926,-2.4926,-2.4926,-2.4926,0,0,0,0,0,0,0,-2.5003,-2.5002,-2.4997,-2.4989,-2.4986,-2.4977,-2.4974,-2.4977,-2.4958,-2.4962,-2.496,-2.4958,-2.494,-2.4938,-2.4937,-2.4942,-2.4926,-2.4926,-2.4926,-2.4926,-2.4957,-2.4958,0,0,0,0,0,0,-2.5007,-2.5003,-2.4998,-2.4996,-2.4992,-2.4977,-2.4975,-2.4975,-2.4958,-2.4954,-2.4959,-2.4956,-2.4939,-2.4937,-2.4936,-2.4954,-2.4926,-2.4926,-2.4926,-2.4957,-2.4958,-2.4959,0,0,0,0,0,0,-2.5008,-2.5007,-2.4998,-2.4999,-2.4997,-2.4978,-2.4979,-2.4975,-2.4973,-2.4955,-2.4951,-2.496,-2.4938,-2.4937,-2.4942,-2.4953,-2.4926,-2.4926,-2.4956,-2.4957,-2.4958,-2.4991,0,0,0,0,0,0,-2.5008,-2.5007,-2.5015,-2.5,-2.4997,-2.5005,-2.498,-2.4975,-2.4974,-2.497,-2.4956,-2.4952,-2.4937,-2.4942,-2.4942,-2.4952,-2.4926,-2.4955,-2.4956,-2.4958,-2.4989,-2.4993,-2.4997,0,0,0,0,0,-2.5008,-2.5026,-2.5016,-2.5015,-2.5007,-2.5006,-2.5005,-2.4988,-2.4975,-2.4981,-2.4969,-2.4953,-2.4952,-2.4943,-2.4943,-2.4953,-2.4954,-2.4956,-2.4958,-2.4987,-2.4992,-2.4997,0,0,0,0,0,0,-2.5043,-2.5023,-2.5012,-2.5025,-2.5017,-2.5001,-2.5009,-2.4994,-2.499,-2.4987,-2.4965,-2.4962,-2.497,-2.4962,-2.4953,-2.4968,-2.495,-2.4952,-2.4973,-2.4978,-2.4982,-2.4983,-2.4926,0,0,0,0,0,-2.5052,-2.5054,-2.5037,-2.505,-2.5046,-2.5028,-2.5027,-2.5015,-2.5006,-2.5002,-2.499,-2.4982,-2.4979,-2.4978,-2.4975,-2.4988,-2.4982,-2.4994,-2.4998,-2.5002,-2.5003,-2.5007,-2.5011,-2.4965,-2.4965,-2.4965,0,0,-2.5071,-2.5061,-2.5064,-2.5056,-2.5049,-2.505,-2.5026,-2.5029,-2.5029,-2.5003,-2.5007,-2.4997,-2.4986,-2.4995,-2.4998,-2.4988,-2.5015,-2.5004,-2.5007,-2.5007,-2.5009,-2.5013,-2.5017,-2.4966,-2.4966,-2.4966,0,0,-2.5106,-2.5099,-2.5108,-2.5101,-2.509,-2.5077,-2.5079,-2.5064,-2.5057,-2.506,-2.504,-2.5039,-2.5036,-2.5028,-2.5023,-2.5052,-2.5036,-2.5052,-2.5073,-2.5076,-2.508,-2.5083,-2.5091,-2.5095,-2.5054,-2.5054,-2.5054,0,-2.5131,-2.5133,-2.5115,-2.5118,-2.5114,-2.509,-2.5098,-2.5091,-2.508,-2.5077,-2.5067,-2.506,-2.5052,-2.5056,-2.5063,-2.5061,-2.5061,-2.5053,-2.5081,-2.5084,-2.5086,-2.5094,-2.5097,-2.5056,-2.5055,-2.5055,-2.5055,0,-2.5163,-2.5164,-2.5172,-2.5161,-2.5159,-2.5164,-2.5145,-2.5144,-2.5131,-2.5119,-2.5121,-2.5109,-2.5102,-2.5102,-2.509,-2.5105,-2.5099,-2.5085,-2.5067,-2.5093,-2.5099,-2.5102,-2.5058,-2.5058,-2.5057,-2.5057,0,0,-2.522,-2.5197,-2.52,-2.5193,-2.5178,-2.5178,-2.5182,-2.5175,-2.5173,-2.5166,-2.5167,-2.5163,-2.515,-2.5145,-2.5131,-2.5134,-2.5154,-2.5119,-2.5119,-2.5125,-2.5167,-2.5176,-2.518,-2.5144,-2.5144,-2.5145,-2.5167,0,-2.525,-2.5256,-2.5238,-2.5247,-2.5246,-2.5222,-2.5225,-2.5215,-2.5203,-2.52,-2.5187,-2.5184,-2.5167,-2.5164,-2.5166,-2.5152,-2.5162,-2.515,-2.5143,-2.5143,-2.5145,-2.5184,-2.5194,-2.5216,-2.517,-2.517,-2.517,0,-2.5287,-2.528,-2.5289,-2.5271,-2.527,-2.5273,-2.5263,-2.5262,-2.5249,-2.524,-2.5233,-2.5216,-2.5216,-2.5199,-2.5198,-2.519,-2.5186,-2.5178,-2.5178,-2.5176,-2.5157,-2.5181,-2.5222,-2.5225,-2.5175,-2.5174,-2.5174,0,-2.5325,-2.5319,-2.5322,-2.5318,-2.5297,-2.5299,-2.5291,-2.5277,-2.5273,-2.5264,-2.5261,-2.5253,-2.5248,-2.5241,-2.5222,-2.5211,-2.5221,-2.5203,-2.5212,-2.5213,-2.5215,-2.5215,-2.5255,-2.5215,-2.5215,-2.5215,-2.5215,0,-2.536,-2.5366,-2.5339,-2.5341,-2.5346,-2.5325,-2.533,-2.5319,-2.5306,-2.5305,-2.5284,-2.5282,-2.5258,-2.5253,-2.5238,-2.5237,-2.5236,-2.5227,-2.5223,-2.5228,-2.5229,-2.5225,-2.5222,-2.5216,-2.5216,-2.5215,-2.5215,0,-2.5404,-2.5386,-2.5388,-2.5368,-2.5363,-2.5367,-2.5349,-2.5349,-2.5336,-2.5334,-2.5332,-2.531,-2.5303,-2.5283,-2.5272,-2.5261,-2.5265,-2.5258,-2.5269,-2.5266,-2.5275,-2.5274,-2.5313,-2.5316,-2.5275,-2.5276,-2.5276,0,-2.5427,-2.543,-2.541,-2.5408,-2.54,-2.5396,-2.5391,-2.537,-2.5365,-2.535,-2.5351,-2.5343,-2.5335,-2.5325,-2.5307,-2.5297,-2.5289,-2.5303,-2.5287,-2.5291,-2.5286,-2.5286,-2.5285,-2.5306,-2.5307,-2.5307,-2.5307,0,-2.5469,-2.5459,-2.5453,-2.5444,-2.5439,-2.543,-2.542,-2.5419,-2.5395,-2.5391,-2.5383,-2.5377,-2.5364,-2.5355,-2.5342,-2.5332,-2.5315,-2.5312,-2.5314,-2.5319,-2.5324,-2.5319,-2.5277,-2.5312,-2.5311,-2.5311,-2.5311,-2.531,-2.5501,-2.5502,-2.5488,-2.5481,-2.5471,-2.5462,-2.546,-2.5446,-2.544,-2.5428,-2.5415,-2.5408,-2.5393,-2.5373,-2.5364,-2.5357,-2.5349,-2.5351,-2.5351,-2.5352,-2.5354,-2.5326,-2.5355,-2.5355,-2.5355,-2.5355,-2.5355,0,-2.554,-2.5529,-2.5523,-2.551,-2.5504,-2.5489,-2.5477,-2.5473,-2.5467,-2.5454,-2.5446,-2.5436,-2.5427,-2.5408,-2.5396,-2.5394,-2.5386,-2.5392,-2.5391,-2.5388,-2.5363,-2.5362,-2.5398,-2.5398,-2.5398,-2.5398,-2.5398,-2.5398,-2.556,-2.556,-2.5548,-2.5543,-2.5531,-2.5525,-2.5518,-2.5509,-2.5498,-2.5488,-2.548,-2.5468,-2.5452,-2.5438,-2.5428,-2.5423,-2.5418,-2.5426,-2.5418,-2.5395,-2.5391,-2.5387,-2.5386,-2.5426,-2.5426,-2.5444,-2.5444,-2.5444]}]]